Location: Bavegemberg
(50.9500°N, 3.8833°E)
Time: 14:56:49
(UTC+00:00)

Cosmos 2082 Rocket - Pass Details

Date: 23 May 2024
Orbit: 832 x 853 km, 71.0° (Epoch: 16 June)

Event Time Altitude Azimuth Distance (km) Brightness Sun altitude
Exits shadow 01:48:49 13° 242° (WSW) 2,254 3.9 -13.1°
Maximum altitude 01:53:33 42° 310° (NW) 1,198 3.1 -12.7°
Drops below altitude 10° 01:58:59 10° 21° (NNE) 2,493 6.1 -12.3°
Sets 02:01:35 0° 29° (NNE) 3,430 7.5 -12.0°
